Location: Béaulencourt
(50.0796°N, 2.8795°E)
Time: 07:24:10
(UTC+00:00)

FengYun 1-2 T - Pass Details

Date: 20 January 2026
Orbit: 844 x 880 km, 98.8° (Epoch: 18 February)

Event Time Altitude Azimuth Distance (km) Brightness Sun altitude
Rises 04:38:54 0° 15° (NNE) 3,456 7.6 -28.1°
Reaches altitude 10° 04:41:18 10° 16° (NNE) 2,509 6.8 -27.7°
Maximum altitude 04:46:53 84° 105° (ESE) 866 4.2 -26.8°
Enters shadow 04:49:49 29° 192° (SSW) 1,509 5.4 -26.4°
